COSMOS 1275 DEB, 18902

Orbit data source: Space-Track

COSMOS 1275 DEB, 18902 is space debris in LEO originally from a launch on Thu, 04 Jun 1981 UTC launched from the Plesetsk Missile And Space Complex (PKMTR). Debris objects in space refer to the collection of defunct objects orbiting the Earth. Examples of debris include non-operational satellites, rocket bodies, and fragments generated from explosions, collisions, or faulty payload assembly.

Loading next visibility...
Identifier
18902, 1981-053MB
Orbit
LEO
Country
Flag of CISCIS
Related business
Manufacturer
Unknown
Mission
Spacecraft
Bus & Motor
Unknown
Mass
Unknown
Launch date (UTC)
1981-06-04 (44 years ago)
Launch vehicle
Unknown
Launch site
Plesetsk Missile And Space Complex (PKMTR)
Object type
Payload
Rocket body
Debris
Shape & HBR
Unknown shape, 0.1 m
Radar Cross Section
Small (<0.1 m²)

Expand to show TLE details & history
Last TLE update: 11 hours ago

TLE from 11 hours ago
0 COSMOS 1275 DEB
1 18902U 81053MB  25286.87292091  .00010024  00000-0  24850-2 0  9996
2 18902  82.9469 148.7055 0013733 305.9738  54.0187 14.51770901629492
Epoch: 2025-10-13T20:57Z
TLE epoch observation values (Epoch: 2025-10-13T20:57:00.366Z)
Latitude
0.00002°
Longitude
171.78452°
Altitude
717.158 km
Speed
7.5 km/s
True Right ascension
09h 54m 49s
True Declination
0° 00' 00"
Sunlit
Object was in daylight at epoch
Visualization orbit readout
Latitude
Unknown
Longitude
Unknown
Altitude
Unknown
Speed
Unknown
Apparent Right ascension
Unknown
Apparent Declination
Unknown
Sunlit
N/A
Visualization observer readout
Local Sidereal Time
02:37:00
Azimuth
Unknown
Elevation
Unknown
Doppler factor
Unknown
Orbital elements
Apogee altitude
726.657 km
Perigee altitude
707.17 km
Semi-major axis
7,095.051 km
Eccentricity
0.00137
Inclination
82.9469°
RAAN
148.7055°
Arg. of periapsis
305.9738°
True anomaly
54.14617°
Mean anomaly
54.0187°
Eccentric anomaly
54.08242°
Mean motion
3.6317 °/min
Orbital period
99.13 mins
BSTAR
0.002485
Loading maneuver chart data...
Computing Atmospheric mass density...
Loading historical data...
Loading historical data...
Loading historical data...
Loading historical data...
Loading historical data...
Loading historical data...
Loading historical data...

Documentation

Showing up to 5 results
|